WetterOnline ( https://www.wetteronline.de )

Wetter aktuell Ammergauer Alpen

Aktuelles Wetter: Garmisch-Partenkirchen (719m)

6-stündlich | Neueste Meldungen
Ortszeit Temperatur Wetter
Fr, 12.07. 20:00 21.8° C leicht bewölkt
Fr, 12.07. 14:00 19.6° C bedeckt
Fr, 12.07. 8:00 19.0° C bedeckt
Fr, 12.07. 2:00 18.0° C bedeckt
Do, 11.07. 20:00 24.0° C wolkig
Do, 11.07. 14:00 25.5° C leicht bewölkt
Do, 11.07. 8:00 17.1° C bedeckt
Do, 11.07. 2:00 18.0° C bedeckt
Ortszeit Temperatur Wetter
Fr, 12.07. 23:00 15.5° C leichter Regen
Fr, 12.07. 22:50 15.5° C leichter Regen
Fr, 12.07. 22:40 15.8° C leichter Regen
Fr, 12.07. 22:30 16.1° C leichter Regen
Fr, 12.07. 22:20 16.1° C leichter Regen
Fr, 12.07. 22:10 16.0° C Regen
Fr, 12.07. 22:00 15.8° C leichter Regen
Fr, 12.07. 21:30 16.8° C starker Regen
Fr, 12.07. 21:00 20.7° C bewölkt
Fr, 12.07. 20:30 21.2° C wolkig
Fr, 12.07. 20:00 21.8° C leicht bewölkt
Ortszeit Relative Feuchte Sichtweite
Fr, 12.07. 20:00 73% >70 km
Fr, 12.07. 14:00 84% >70 km
Fr, 12.07. 8:00 83% >70 km
Fr, 12.07. 2:00 96% 21 km
Do, 11.07. 20:00 65% 65 km
Do, 11.07. 14:00 61% 60 km
Do, 11.07. 8:00 95% 50 km
Do, 11.07. 2:00 94% 40 km
Ortszeit Relative Feuchte Sichtweite
Fr, 12.07. 23:00 96% 55 km
Fr, 12.07. 22:50 96% -
Fr, 12.07. 22:40 93% -
Fr, 12.07. 22:30 89% 50 km
Fr, 12.07. 22:20 89% -
Fr, 12.07. 22:10 91% -
Fr, 12.07. 22:00 91% >70 km
Fr, 12.07. 21:30 82% 1.4 km
Fr, 12.07. 21:00 57% 40 km
Fr, 12.07. 20:30 78% >70 km
Fr, 12.07. 20:00 73% >70 km
Ortszeit Niederschlagsmenge Niederschlagsart
Fr, 12.07. 20:00 3 l/m2 in 12 Std. -
Fr, 12.07. 14:00 3 l/m2 in 6 Std. Regen
Fr, 12.07. 8:00 0.3 l/m2 in 12 Std. -
Fr, 12.07. 2:00 0.3 l/m2 in 6 Std. Regen
Do, 11.07. 20:00 0.3 l/m2 in 12 Std. -
Do, 11.07. 14:00 0.3 l/m2 in 6 Std. Regen
Do, 11.07. 8:00 3 l/m2 in 12 Std. Regen
Do, 11.07. 2:00 0.3 l/m2 in 6 Std. Regen
Ortszeit Niederschlagsmenge Niederschlagsart
Fr, 12.07. 23:00 0.3 l/m2 in 1 Std. Regen
Fr, 12.07. 22:50 keine Meldung -
Fr, 12.07. 22:40 keine Meldung -
Fr, 12.07. 22:30 0.3 l/m2 in 30 Min -
Fr, 12.07. 22:20 keine Meldung -
Fr, 12.07. 22:10 keine Meldung -
Fr, 12.07. 22:00 4.2 l/m2 in 1 Std. Regen
Fr, 12.07. 21:30 1.5 l/m2 in 30 Min -
Fr, 12.07. 21:00 <0.05 l/m2 in 1 Std. Regen
Fr, 12.07. 20:30 0.0 l/m2 in 30 Min -
Fr, 12.07. 20:00 0.0 l/m2 in 1 Std. -
Ortszeit Stärke Spitze Richtung
km/h Bft. km/h Grad Sektor
Fr, 12.07. 20:00 7 2 22 60° NO
Fr, 12.07. 14:00 4 1 25 210° SW
Fr, 12.07. 8:00 2 1 7 110° O
Fr, 12.07. 2:00 7 2 14 190° S
Do, 11.07. 20:00 7 2 37 50° NO
Do, 11.07. 14:00 18 3 40 40° NO
Do, 11.07. 8:00 6 1 9 200° S
Do, 11.07. 2:00 2 1 11 310° NW
Ortszeit Stärke Spitze Richtung
km/h Bft. km/h Grad Sektor
Fr, 12.07. 23:00 4 1 14 280° W
Fr, 12.07. 22:50 4 1 - 280° W
Fr, 12.07. 22:40 4 1 - 160° S
Fr, 12.07. 22:30 4 1 14 160° S
Fr, 12.07. 22:20 4 1 - 160° S
Fr, 12.07. 22:10 7 2 - 150° SO
Fr, 12.07. 22:00 4 1 32 90° O
Fr, 12.07. 21:30 9 2 31 270° W
Fr, 12.07. 21:00 14 3 36 220° SW
Fr, 12.07. 20:30 7 2 14 120° SO
Fr, 12.07. 20:00 7 2 22 60° NO
Ortszeit Untergrenze Bedeckung Gattung
total tief tief mittel hoch
Fr, 12.07. 20:00 3300 m 3/8 3/8 - - -
Fr, 12.07. 14:00 4200 m 8/8 8/8 - - -
Fr, 12.07. 8:00 4800 m 8/8 8/8 - - -
Fr, 12.07. 2:00 3900 m 8/8 8/8 - - -
Do, 11.07. 20:00 1020 m 8/8 3/8 - - -
Do, 11.07. 14:00 2100 m 5/8 1/8 - - -
Do, 11.07. 8:00 2700 m 8/8 8/8 - - -
Do, 11.07. 2:00 3300 m 8/8 8/8 - - -
Ortszeit Bedeckungsgrad in Achtel und Wolkenuntergrenze
Fr, 12.07. 23:00 7(2100m) 8(2400m) 8(4800m)
Fr, 12.07. 22:50 7(2100m) 8(2400m) 8(4800m)
Fr, 12.07. 22:40 8
Fr, 12.07. 22:30 2(1410m) 8(2400m) 8(3000m)
Fr, 12.07. 22:20 2(1410m) 8(2400m) 8(3000m)
Fr, 12.07. 22:10 7
Fr, 12.07. 22:00 1(1500m) 7(2400m) 7(3000m)
Fr, 12.07. 21:30 2(780m) 8(3000m) 8(4200m)
Fr, 12.07. 21:00 1(870m) 7(1500m) 8(3000m)
Fr, 12.07. 20:30 2(1110m) 7(3000m) 7(8400m)
Fr, 12.07. 20:00 3(3300m) 3(7500m)
Ortszeit Luftdruck NN (hPa) Tendenz (hPa in 3 Std.)
Fr, 12.07. 20:00 1007 - 1,7
Fr, 12.07. 14:00 1011 - 2,0
Fr, 12.07. 8:00 1012 - 0,8
Fr, 12.07. 2:00 1015 - 1,3
Do, 11.07. 20:00 1014 - 0,3
Do, 11.07. 14:00 1014 - 0,7
Do, 11.07. 8:00 1019 + 0,3
Do, 11.07. 2:00 1018 - 0,4
Ortszeit Luftdruck NN (hPa) Tendenz (hPa in 3 Std.)
Fr, 12.07. 23:00 1014 + 4,7
Fr, 12.07. 22:50 1014 keine Meldung
Fr, 12.07. 22:40 1013 keine Meldung
Fr, 12.07. 22:30 1013 + 4,6
Fr, 12.07. 22:20 1013 keine Meldung
Fr, 12.07. 22:10 1013 keine Meldung
Fr, 12.07. 22:00 1013 + 4,6
Fr, 12.07. 21:30 1012 + 3,4
Fr, 12.07. 21:00 1010 + 1,5
Fr, 12.07. 20:30 1008 - 0,4
Fr, 12.07. 20:00 1007 - 1,7
Ortszeit Schneehöhe (cm)
Fr, 12.07. 20:00 0
Fr, 12.07. 14:00 0
Fr, 12.07. 8:00 0
Fr, 12.07. 2:00 0
Do, 11.07. 20:00 0
Do, 11.07. 14:00 0
Do, 11.07. 8:00 0
Do, 11.07. 2:00 0
Ortszeit Schneehöhe (cm)
Fr, 12.07. 23:00 0
Fr, 12.07. 22:50 0
Fr, 12.07. 22:40 -
Fr, 12.07. 22:30 0
Fr, 12.07. 22:20 0
Fr, 12.07. 22:10 -
Fr, 12.07. 22:00 0
Fr, 12.07. 21:30 0
Fr, 12.07. 21:00 0
Fr, 12.07. 20:30 0
Fr, 12.07. 20:00 0
Link zu dieser Seite / Seite empfehlen

Das Wetter in ...